{"data":{"norad_id":39057,"epoch":"2026-09-20T04:17:22.007616Z","epoch_age_seconds":45876,"freshness":"FRESH","line1":"1 39057U 13001A   26263.17872694  .00000061  00000+0  36992-3 0  9990","line2":"2 39057  82.5019 161.2845 0026859 175.2966 184.8371 12.42998367620511","mean_motion":12.42998367,"eccentricity":0.0026859,"inclination_deg":82.5019,"raan_deg":161.2845,"arg_perigee_deg":175.2966,"mean_anomaly_deg":184.8371,"bstar":0.00036992,"rev_number":62051,"period_min":115.84890521421,"perigee_km":1472.77474028,"apogee_km":1515.0618469061,"semimajor_km":7872.0552935931,"source":"CELESTRAK","updated_at":"2026-09-20T09:00:13.899097Z"}}